Regional Weather Roundup
Issued by NWS

Home | Current Version | Previous Version | Graphics & Text | Print | Product List | Glossary On
Versions: 1 2 3 4 5 6 7 8 9 10 11 12 13 14 15 16 17 18 19 20 21 22 23 24 25 26 27 28 29 30 31 32 33 34 35 36 37 38 39 40 41 42 43 44 45 46 47 48 49 50
000
ASUS43 KLOT 170103
RWRIL

ILLINOIS REGIONAL WEATHER ROUNDUP
NATIONAL WEATHER SERVICE CHICAGO/ROMEOVILLE IL
700 PM CST SAT DEC 16 2017

NOTE: "FAIR" INDICATES FEW OR NO CLOUDS BELOW 12,000 FEET WITH NO
SIGNIFICANT WEATHER AND/OR OBSTRUCTIONS TO VISIBILITY.

* THESE STATIONS ARE NOT UNDER NWS QUALITY CONTROL. THEY ALSO MAY NOT
  REPORT WEATHER SUCH AS PRECIPITATION OR FOG.

ILZ001-002-007-009-015-016-024-170200-
NORTHWEST ILLINOIS

CITY           SKY/WX    TMP DP  RH WIND       PRES   REMARKS
MOLINE         CLOUDY    29  22  75 VRB3      29.97R
STERLING*      CLOUDY    30  25  81 NE3       30.00R
$$

ILZ003-004-008-010-011-017-018-170200-
NORTH CENTRAL ILLINOIS

CITY           SKY/WX    TMP DP  RH WIND       PRES   REMARKS
ROCKFORD       PTCLDY    32  25  75 N6        30.03R WCI  26
FREEPORT*      CLEAR     29  24  81 CALM      30.02R
DE KALB*       CLEAR     32  25  74 CALM      30.01R
$$

ILZ005-006-012>014-019>023-170200-
NORTHEAST ILLINOIS

CITY           SKY/WX    TMP DP  RH WIND       PRES   REMARKS
CHICAGO-OHARE  PTCLDY    38  29  70 E6        30.01R WCI  33
CHICAGO-MIDWAY CLEAR     40  30  67 E3        30.02R
AURORA         CLEAR     30  22  72 CALM      30.00R
LANSING*       CLEAR     31  26  81 CALM      30.01R
JOLIET*        CLEAR     32  26  76 CALM      30.00R
WAUKEGAN       CLEAR     30  27  88 N3        30.03R
DUPAGE AIRPORT CLEAR     28  24  85 CALM      30.00R
WHEELING       CLEAR     34  30  85 CALM      30.03R
NORTHERLY ISL    N/A     34  30  86 MISG        N/A
$$

LMZ740>746-170200-
SOUTHERN LAKE MICHIGAN

STATION/POSITION SKY/WX   TEMP    WIND        PRES    VSBY  WAVE
                          AIR SEA DIR/SP/G                  HT/PER
                          (F)     (DEG/KT/KT) (MB)    (MI)  (FT/S)
HARRISON CRIB              40      30/  2/  2   N/A
BURNHAM HARBOR             35     350/  2/  3   N/A
CALUMET HARBOR             36      90/  1/  3 1015.5
BURNS HARBOR               38      90/  4/  6 1016.9R
MICHIGAN CITY              37      80/  2/  3   N/A
$$

ILZ025>027-034>036-040-047-049-050-058-095>099-170200-
WEST-CENTRAL ILLINOIS

CITY           SKY/WX    TMP DP  RH WIND       PRES   REMARKS
QUINCY         CLOUDY    44  26  49 S8        29.98R
GALESBURG*     CLOUDY    32  25  74 CALM      29.98R
MACOMB*        CLOUDY    37  25  62 S3        29.99R
PITTSFIELD*    CLOUDY    42  26  53 S5        30.00R
$$

ILZ028>032-037-038-041>044-048-051>054-059>061-170200-
CENTRAL ILLINOIS

CITY           SKY/WX    TMP DP  RH WIND       PRES   REMARKS
BLOOMINGTON    CLOUDY    37  25  61 S6        30.01R WCI  32
DECATUR        CLOUDY    45  30  55 S13       30.02R
PEORIA         CLEAR     40  26  57 CALM      29.99R
LACON*         CLOUDY    31  23  71 CALM      29.98R
LINCOLN*       CLEAR     43  28  56 S5        30.01R
SPRINGFIELD    CLOUDY    43  28  55 S9        30.01R
TAYLORVILLE    NOT AVBL
$$

ILZ033-039-045-046-055>057-062-063-170200-
EAST-CENTRAL ILLINOIS

CITY           SKY/WX    TMP DP  RH WIND       PRES   REMARKS
CHAMPAIGN      CLEAR     38  28  67 S10       30.02R WCI  31
DANVILLE*      CLEAR     43  30  60 S14G20    30.01R
MATTOON        CLOUDY    44  30  57 S10       30.04R
$$

ILZ079-100>102-170200-
SOUTHWEST ILLINOIS

CITY           SKY/WX    TMP DP  RH WIND       PRES   REMARKS
ALTON          CLEAR     46  30  53 S14       30.03R
BELLEVILLE     CLOUDY    47  29  51 SW7       30.04R
CAHOKIA*       CLOUDY    49  27  42 S7        30.04R
SPARTA*        CLOUDY    46  32  58 S9G16     30.08R
$$

ILZ064>066-069>071-074>076-080>082-084>086-088>090-092>094-170200-
SOUTH-CENTRAL ILLINOIS

CITY           SKY/WX    TMP DP  RH WIND       PRES   REMARKS
CARBONDALE     CLOUDY    45  31  58 S13       30.10R
CAIRO*         PTCLDY    46  32  57 S9        30.14R
EFFINGHAM*     CLOUDY    46  31  55 S8        30.08R
MARION         CLEAR     45  30  57 S12       30.12R
MT. VERNON     CLOUDY    41  30  65 S7        30.09R
CENTRALIA*     CLOUDY    46  32  58 S13       30.06R
SALEM*         CLOUDY    47  30  50 S14       30.07R
METROPOLIS*    CLOUDY    44  31  60 S5        30.15R
$$

ILZ067-068-072-073-078-083-087-091-170200-
SOUTHEAST ILLINOIS

CITY           SKY/WX    TMP DP  RH WIND       PRES   REMARKS
LAWRENCEVILLE  CLOUDY    40  29  64 S7        30.10R
FLORA*         CLOUDY    47  31  54 S12       30.08R
HARRISBURG*    CLOUDY    45  31  58 S6        30.14R
ROBINSON*      CLOUDY    42  30  62 S12       30.09R
CARMI*         CLOUDY    40  30  67 S6        30.11R
$$

ABBREVIATIONS USED IN REMARKS
   TC - TEMPERATURE IN CELSIUS
  WCI - WIND CHILL INDEX
   HX - HEAT INDEX
  VSB - VISIBILITY
$$





USA.gov is the U.S. government's official web portal to all federal, state and local government web resources and services.